Regional Weather Roundup
Issued by NWS State College, PA

Home | Current Version | Previous Version | Text Only | Print | Product List | Glossary On
Versions: 1 2 3 4 5 6 7 8 9 10 11 12 13 14 15 16 17 18 19 20 21 22 23 24 25 26 27 28 29 30 31 32 33 34 35 36 37 38 39 40 41 42 43 44 45 46 47 48 49 50
000
ASUS41 KCTP 271710
RWRCTP

REGIONAL WEATHER ROUNDUP
NATIONAL WEATHER SERVICE STATE COLLEGE PA
1200 PM EST MON FEB 27 2017

Note: "fair" indicates few or no clouds below 12,000 feet with no
significant weather and/or obstructions to visibility.

* = STATION THAT DOES NOT REPORT PRECIPITATION /E.G. RAIN...SNOW...ETC/
    THUNDER OR FOG.

PAZ002>004-007>009-013>016-020>023-029>032-271800-
WESTERN PENNSYLVANIA

CITY           SKY/WX    TMP DP  RH WIND       PRES   REMARKS
ERIE           PTSUNNY   49  23  36 W13       30.27S
MEADVILLE      PTSUNNY   43  22  43 SW9       30.27S
FRANKLIN*      CLOUDY    45  23  42 SW9G16    30.29S
NEW CASTLE     CLOUDY    44  21  40 S8        30.30F
BEAVER COUNTY  CLOUDY    45  23  42 SW10      30.30S
BUTLER*        PTSUNNY   45  21  39 SW9       30.31F
PITTSBURGH INT CLOUDY    45  26  47 SW10      30.30S
PITTSBURGH     CLOUDY    45  24  43 S12       30.30S
INDIANA*       CLOUDY    45  23  42 SW8G15    30.34R
LATROBE        CLOUDY    45  30  57 S13       30.34R
WASHINGTON CO* CLOUDY    43  30  61 SW13      30.34S
$$

PAZ004>006-010>012-017>019-024>028-033>037-041-042-045-046-049>053-271800-
CENTRAL PENNSYLVANIA

CITY           SKY/WX    TMP DP  RH WIND       PRES   REMARKS
BRADFORD       SUNNY     42  18  37 VRB7G18   30.24S
DUBOIS         CLOUDY    44  18  35 SW10      30.27S
CLEARFIELD       N/A    N/A N/A N/A MISG      30.31R
JOHNSTOWN      CLOUDY    42  24  49 SW9G20    30.28S
ALTOONA        CLOUDY    47  25  42 SW10      30.32S
STATE COLLEGE  CLOUDY    43  18  36 S7        30.32F
WILLIAMSPORT   CLOUDY    41  21  44 E3        30.36S
SELINSGROVE    CLOUDY    43  24  47 S7        30.38S
FT INDIANTOWN  CLOUDY    42  28  58 S5        30.40F
CAPITAL CITY   CLOUDY    48  25  40 VRB3      30.39F
HARRISBURG     CLOUDY    46  31  55 E6        30.39F
YORK           CLOUDY    51  23  33 SW10      30.38F
$$

PAZ038>040-043-044-047-048-054-055-060>062-067>071-271800-
EASTERN PENNSYLVANIA

CITY           SKY/WX    TMP DP  RH WIND       PRES   REMARKS
SCRANTON       CLOUDY    45  20  36 W9        30.34F
MOUNT POCONO   MOSUNNY   42  16  34 W12G20    30.31F
ALLENTOWN      PTSUNNY   50  28  42 SW10      30.40F
QUAKERTOWN*    CLOUDY    48  30  49 SW9       30.41F
READING        CLOUDY    50  33  52 S9        30.39F
LANCASTER      CLOUDY    50  32  50 MISG      30.39F
COATESVILLE    MOSUNNY   48  32  53 VRB7G13   30.41F
POTTSTOWN      CLOUDY    48  31  51 S7        30.42F
BLUE BELL      PTSUNNY   50  30  46 SW8       30.41F
DOYLESTOWN     MOSUNNY   50  26  39 SW9       30.40F
WILLOW GROVE   NOT AVBL
NORTH PHILA    MOSUNNY   53  28  38 SW12G18   30.44F
PHILADELPHIA   PTSUNNY   51  29  42 SW13      30.43F
$$



USA.gov is the U.S. government's official web portal to all federal, state and local government web resources and services.